{"data":{"norad_id":69044,"epoch":"2026-09-20T01:40:03.076320Z","epoch_age_seconds":60470,"freshness":"FRESH","line1":"1 69044U 26101V   26263.06948005  .00015879  00000+0  49296-3 0  9996","line2":"2 69044  97.2846 116.5704 0001893  89.4788 270.6672 15.33455663 21116","mean_motion":15.33455663,"eccentricity":0.0001893,"inclination_deg":97.2846,"raan_deg":116.5704,"arg_perigee_deg":89.4788,"mean_anomaly_deg":270.6672,"bstar":0.00049296,"rev_number":2111,"period_min":93.905551672934,"perigee_km":464.21594642462,"apogee_km":466.80695172744,"semimajor_km":6843.648449076,"source":"CELESTRAK","updated_at":"2026-09-20T09:00:44.061936Z"}}